Regional Weather Roundup
Issued by NWS

Home | Current Version | Previous Version | Graphics & Text | Print | Product List | Glossary On
Versions: 1 2 3 4 5 6 7 8 9 10 11 12 13 14 15 16 17 18 19 20 21 22 23 24 25 26 27 28 29 30 31 32 33 34 35 36 37 38 39 40 41 42 43 44 45 46 47 48 49 50
000
ASUS43 KLMK 251502
RWRKY
KENTUCKY REGIONAL WEATHER ROUNDUP
NATIONAL WEATHER SERVICE LOUISVILLE KY
1100 AM EDT SAT APR 25 2015

NOTE "FAIR" INDICATES FEW OR NO CLOUDS BELOW 12,000 FEET
WITH NO SIGNIFICANT WEATHER AND/OR OBSTRUCTIONS TO VISIBILITY.

KYZ001>023-026-027-061>063-070>075-251600-
WESTERN AND SOUTH CENTRAL KENTUCKY

CITY           SKY/WX    TMP DP  RH WIND       PRES   REMARKS
PADUCAH        CLOUDY    63  59  87 VRB5      29.60F
HENDERSON      CLOUDY    57  52  82 SE8       29.61F
OWENSBORO      LGT RAIN  58  56  93 S10       29.64F FOG
HOPKINSVILLE   PTSUNNY   66  59  77 S12G17    29.65
BOWLING GREEN  CLOUDY    63  57  81 S8        29.68F
GLASGOW        NOT AVBL
$$

KYZ024-025-028>034-038-045-046-053-251600-
NORTH CENTRAL KENTUCKY

CITY           SKY/WX    TMP DP  RH WIND       PRES   REMARKS
LOUISVILLE/SDF LGT RAIN  52  50  93 E6        29.69F FOG
LOUISVILLE/LOU LGT RAIN  51  50  96 SE7       29.70F FOG
FORT KNOX      CLOUDY    51  50  96 SE8       29.67S
$$

KYZ035>037-039>044-047>052-055>060-089>105-251600-
NORTHEAST KENTUCKY

CITY           SKY/WX    TMP DP  RH WIND       PRES   REMARKS
LEXINGTON      RAIN      49  48  97 SE10      29.72S FOG
COVINGTON      LGT RAIN  49  44  83 E9        29.73F
FRANKFORT      RAIN      50  48  93 E7        29.71F FOG
$$

KYZ054-064>069-076>088-106>120-251600-
SOUTHEAST KENTUCKY

CITY           SKY/WX    TMP DP  RH WIND       PRES   REMARKS
JACKSON        LGT RAIN  47  46  97 CALM      29.75F
LONDON         CLOUDY    56  45  66 NE3       29.74S
SOMERSET       NOT AVBL
MIDDLESBORO    CLOUDY    53  51  91 CALM      29.78F
MONTICELLO     CLOUDY    64  57  78 S12       29.75S
$$



USA.gov is the U.S. government's official web portal to all federal, state and local government web resources and services.